SCP
2 2 2 2 1 1 2 2 2 2 2 1 1 1 1 2 2 1 1 1 1 1 1 1 1 1 1 1 1 1 1 1 1 1 1 1 1 1 1 0 0 0 0
2 2 1 1 1 1 2 2 2 2 1 1 1 1 1 1 1 1 1 1 1 1 1 1 1 1 1 1 1 1 1 1 1 1 1 1 1 1 1 0 0 0 0
2 1 1 1 1 1 1 1 1 1 1 1 1 1 1 1 1 1 1 1 1 1 1 1 1 1 1 1 1 1 1 1 1 1 1 1 1 1 1 1 0 0 0
1 1 1 1 1 1 1 1 1 1 1 1 1 1 1 1 1 1 1 1 1 1 1 1 1 1 1 1 1 1 1 1 1 1 1 1 1 1 1 1 0 0 0
1 1 1 1 1 1 1 1 1 1 1 1 1 1 1 1 1 1 1 1 1 1 1 1 1 1 1 1 1 1 1 1 1 1 1 1 1 1 1 1 1 1 1
2 2 1 1 1 1 1 1 1 1 1 1 1 1 1 1 1 1 1 1 1 1 1 1 1 1 1 1 1 1 1 1 1 1 1 1 1 1 1 1 1 1 1
2 2 1 1 1 1 1 1 1 1 1 1 0 0 0 1 1 1 1 1 1 1 1 1 1 2 2 2 1 1 1 1 2 2 2 2 1 1 1 1 1 1 1
2 1 1 1 1 1 1 1 1 1 1 0 0 0 0 1 1 1 1 1 1 1 1 1 1 2 2 2 1 1 1 2 2 2 2 2 2 1 1 1 1 1 1
2 2 1 1 1 1 1 1 1 1 0 0 0 0 0 1 1 1 1 1 1 1 1 1 1 2 2 1 1 1 1 2 2 2 2 2 2 2 1 1 1 1 1
2 2 1 1 1 1 1 1 1 0 0 0 0 0 0 0 0 0 0 0 1 1 1 1 1 1 1 1 1 1 1 1 1 1 2 2 2 2 2 1 1 1 1
2 1 1 1 1 1 1 1 0 0 0 0 0 0 0 0 0 0 0 0 1 1 1 1 1 1 1 1 1 1 1 1 1 1 1 1 1 2 1 1 1 1 1
1 1 1 1 1 0 0 0 0 0 0 0 0 0 0 0 0 0 0 0 0 0 1 1 1 1 1 1 1 1 1 1 1 1 1 1 1 1 1 1 1 1 1
1 1 0 0 0 0 0 0 0 0 0 0 0 0 0 0 0 0 0 0 0 0 1 1 1 1 1 1 1 1 1 1 0 0 0 1 1 1 1 1 1 1 1
1 1 0 0 0 0 0 0 0 0 0 0 0 0 0 0 0 0 0 0 0 0 1 1 1 1 1 1 1 1 1 0 0 0 0 0 0 0 0 1 1 1 1
1 1 0 0 0 0 0 0 0 0 0 0 0 0 0 0 0 0 0 0 0 0 0 1 1 1 1 1 1 1 1 0 0 0 0 0 0 0 0 0 1 1 1
1 1 0 0 0 0 0 0 0 0 0 0 0 0 0 0 0 0 0 0 0 0 0 0 1 1 1 1 1 1 1 0 0 0 0 0 0 0 0 0 0 1 1
1 0 0 0 0 0 0 0 0 0 0 0 0 0 0 0 0 0 0 0 0 0 0 0 1 1 1 1 1 1 1 0 0 0 0 0 0 0 0 0 0 0 0
0 0 0 0 0 0 0 0 0 0 0 0 0 0 0 0 0 0 0 0 0 0 0 0 0 1 1 1 1 1 0 0 0 0 0 0 0 0 0 0 0 0 0
0 0 0 0 0 0 0 0 0 0 0 0 0 0 0 0 1 1 1 1 0 0 0 0 0 0 1 1 1 1 0 0 0 0 0 0 0 0 0 0 0 0 0
0 0 0 0 0 0 1 1 1 1 0 1 1 1 1 1 1 1 1 1 1 1 1 0 0 0 0 1 1 1 0 0 0 0 0 0 0 0 0 0 0 0 0
1 1 1 1 1 1 1 1 1 1 1 1 1 1 1 1 1 1 1 1 1 1 1 1 1 1 1 1 1 1 0 0 0 0 1 0 0 0 0 0 0 0 0
1 1 1 1 1 1 1 0 1 1 1 1 2 2 1 1 1 1 0 0 0 1 1 1 1 1 1 1 1 1 1 0 0 1 1 0 0 0 0 0 0 0 0
2 2 2 2 2 1 1 0 0 0 1 1 1 1 1 1 1 1 1 1 1 1 0 0 0 1 1 1 1 1 1 1 0 0 0 0 0 0 0 0 0 0 0
2 2 2 2 2 1 1 0 0 0 1 1 1 1 1 1 1 1 1 1 2 1 1 0 0 0 1 1 1 1 1 1 0 0 0 0 0 0 0 0 0 0 0
3 3 2 2 2 1 1 0 0 0 1 1 1 1 1 1 1 1 1 2 2 2 2 1 0 0 0 0 0 0 0 0 0 0 1 1 0 0 0 0 0 0 0
3 3 3 2 2 2 1 0 0 0 1 1 1 1 1 1 1 0 0 1 2 3 3 2 1 0 0 0 0 0 0 0 0 0 0 1 1 0 0 0 0 0 0
Wind_Speed
1 2 1 1 0 1 2 2 1 0 0 1 2 2 3 3 0 2 5 11 11 10 10 10 10 11 11 10 10 10 10 10 9 8 8 8 9 9 8 8 9 9 8
2 1 1 0 0 0 1 1 1 1 1 1 2 3 3 3 2 1 3 6 10 10 10 11 11 12 12 12 11 11 11 10 10 9 9 9 9 9 9 9 9 9 8
2 1 1 0 0 1 1 1 1 1 1 2 2 3 3 2 2 1 1 2 5 9 11 11 11 12 13 13 13 13 12 11 11 10 10 10 10 10 9 9 9 9 9
1 1 1 1 0 0 1 1 1 1 0 1 2 3 2 2 3 3 2 2 2 3 8 12 12 12 13 13 14 13 13 13 12 12 12 11 11 11 11 10 10 10 10
1 1 2 1 1 0 0 0 2 0 1 1 3 3 3 3 3 4 3 3 3 3 3 8 12 12 13 14 14 14 14 14 14 14 14 13 12 12 11 11 11 11 11
2 1 2 1 1 1 1 1 1 0 1 2 4 2 3 3 3 3 4 3 3 4 4 4 5 8 13 13 13 14 14 14 15 15 15 15 14 13 13 13 13 12 12
3 1 2 2 1 1 2 1 1 2 2 1 2 2 3 4 3 3 3 2 3 4 3 3 3 3 4 12 12 12 14 15 14 15 15 16 15 15 15 14 14 14 13
2 3 2 1 1 2 2 1 1 1 2 1 1 2 2 0 1 2 2 2 1 1 2 3 3 3 3 3 7 12 13 14 14 14 15 15 16 15 15 16 15 15 15
3 4 3 3 2 1 2 1 2 2 2 1 1 1 2 2 2 0 1 1 1 1 1 2 3 4 4 3 4 9 13 13 13 15 15 15 15 14 15 16 16 16 16
3 3 3 3 2 2 3 3 4 3 2 2 1 0 1 1 1 2 1 1 2 2 2 2 1 2 3 2 4 7 9 10 12 14 14 13 14 14 14 16 18 17 17
3 3 4 3 2 3 4 4 3 4 3 4 3 2 2 1 1 1 1 1 1 1 1 1 1 1 2 2 2 3 7 7 8 10 12 13 13 14 15 16 18 19 19
3 3 4 2 2 3 3 3 3 3 3 4 3 3 3 2 2 2 3 3 2 2 1 1 1 1 1 2 2 3 4 6 7 8 10 11 13 14 15 17 19 20 20
4 3 4 2 2 2 2 2 1 2 3 3 3 3 3 3 2 2 2 3 4 3 2 1 1 1 0 2 3 3 5 6 6 7 8 10 11 12 14 16 18 19 20
5 5 4 3 2 1 2 2 1 1 2 2 2 2 2 2 2 2 2 3 4 4 3 2 1 1 1 2 3 3 3 6 7 7 8 9 10 11 13 14 16 17 17
5 5 3 3 2 2 2 1 0 1 1 1 2 2 2 3 2 2 2 2 2 4 4 3 2 2 1 1 3 1 1 5 8 9 10 10 11 11 12 12 13 14 14
4 3 2 2 2 2 1 1 1 1 1 0 1 0 2 2 3 3 2 2 2 2 3 3 3 2 3 4 1 2 3 6 9 12 12 12 11 11 11 12 13 13 13
3 2 2 2 2 2 1 1 2 1 1 1 2 1 1 2 2 3 3 3 2 2 3 4 3 3 4 4 3 3 5 5 6 12 13 13 13 13 12 12 13 13 14
4 3 3 3 3 3 2 2 3 1 1 1 2 2 2 2 1 2 2 3 3 3 3 5 4 4 4 4 4 5 6 7 5 8 12 13 13 13 13 13 13 13 13
4 4 4 3 3 2 2 3 2 2 2 2 2 2 3 3 3 2 3 3 3 4 3 4 5 4 4 4 4 5 6 5 7 8 9 12 13 14 14 14 14 14 14
5 4 4 4 3 3 3 3 3 3 3 3 3 3 4 4 4 3 4 4 3 4 4 4 4 4 4 4 3 3 4 3 4 7 6 6 10 14 15 15 15 15 15
6 5 5 4 4 4 4 4 3 4 3 4 4 4 5 6 5 4 5 3 3 3 4 4 4 4 3 3 3 3 4 4 4 4 4 4 4 5 8 12 15 16 16
5 5 5 5 5 5 4 4 2 3 4 4 5 5 6 6 8 11 11 9 7 6 5 4 5 5 5 5 4 4 4 5 5 3 4 5 5 5 5 6 11 16 17
5 5 5 5 5 4 6 6 5 3 5 5 6 5 7 7 4 5 8 12 12 14 13 8 8 8 7 6 5 5 5 6 6 5 5 7 6 6 6 8 12 14 17
5 5 5 6 5 6 9 9 8 6 6 7 7 7 7 7 7 5 5 6 7 8 10 11 10 11 10 8 6 6 7 7 7 7 7 7 6 6 7 6 9 12 14
5 6 6 6 6 6 10 11 9 5 6 8 9 9 9 8 9 10 7 7 7 7 10 13 13 14 14 13 9 5 6 7 8 7 5 6 6 6 5 5 7 11 13
6 6 6 6 7 7 9 12 12 6 7 7 7 8 11 12 11 11 8 7 8 8 8 9 8 10 11 12 14 11 9 8 9 7 5 5 5 4 5 5 5 4 5
Wind_Direction
91 79 77 70 165 140 151 158 173 189 305 292 290 301 311 320 12 118 140 161 167 173 177 184 188 191 193 193 192 190 188 187 185 182 182 179 173 172 173 169 165 161 159
95 101 133 189 266 97 99 143 193 198 216 269 286 292 293 304 321 102 147 168 178 183 187 192 197 200 200 200 201 199 197 195 191 189 190 187 183 180 180 180 175 172 170
134 153 133 159 285 143 143 174 208 198 230 238 240 253 259 272 289 292 218 177 187 197 199 201 203 206 207 206 206 205 202 200 196 195 195 194 191 187 186 187 185 182 179
125 131 109 99 276 172 177 175 164 205 266 278 257 252 239 226 238 247 243 219 203 197 202 209 208 210 211 212 212 211 207 205 202 201 201 199 197 194 191 191 191 188 186
121 109 100 72 282 122 26 323 93 58 264 262 257 234 232 217 215 231 232 231 218 208 197 207 210 211 214 216 217 216 212 210 207 206 207 206 204 200 198 196 195 195 193
96 81 120 85 348 65 58 39 24 264 257 270 283 267 220 222 207 209 222 222 213 222 214 206 203 217 218 218 217 218 218 217 213 211 211 211 209 205 202 202 200 200 198
96 71 92 118 79 83 54 33 5 295 250 244 288 286 236 215 199 202 201 211 215 220 206 191 195 209 211 220 220 220 222 223 219 217 216 214 213 209 205 206 205 203 202
114 111 70 91 69 98 75 26 24 327 317 68 324 315 303 252 211 199 180 196 212 230 229 212 196 200 218 201 212 219 224 225 222 221 222 221 217 213 210 209 208 207 206
95 64 70 56 8 60 86 18 19 355 336 323 71 358 348 13 334 124 202 138 147 216 252 241 211 204 212 207 196 212 222 226 228 231 232 226 221 217 214 213 211 210 210
105 102 85 71 20 34 63 31 59 350 349 346 41 76 85 63 323 345 321 140 199 203 222 251 230 204 214 205 201 198 209 218 227 233 235 233 227 224 222 219 218 216 216
114 108 98 74 41 60 64 46 39 17 6 11 358 353 355 333 265 276 321 333 298 239 198 199 200 215 201 200 193 181 196 209 223 234 236 237 237 233 228 227 228 226 224
137 115 106 82 62 65 69 52 20 34 39 25 358 347 352 1 356 354 340 330 321 309 284 210 221 230 226 170 152 160 188 207 221 233 238 240 240 239 236 234 233 232 231
136 107 97 90 83 83 87 61 48 41 35 25 349 345 353 345 351 348 333 328 327 308 287 242 211 198 158 117 126 163 194 203 219 232 241 243 243 241 237 236 235 235 235
111 122 119 126 108 89 82 65 335 78 76 2 338 14 324 326 344 348 340 335 322 317 317 331 1 64 73 115 142 188 209 206 220 232 241 247 248 243 239 235 234 235 235
129 125 131 128 121 101 65 28 39 43 55 352 342 6 344 328 339 340 330 328 322 318 319 332 0 1 6 86 154 228 257 223 226 234 240 243 245 244 240 235 233 232 231
83 117 133 137 136 134 140 303 290 139 118 248 251 335 335 324 342 330 326 322 311 304 302 319 320 341 2 332 300 317 304 269 242 239 239 238 240 241 239 235 231 229 229
130 149 162 166 170 179 177 208 280 233 206 260 302 298 284 293 327 326 320 321 314 314 305 305 314 321 317 296 287 276 273 259 247 242 237 234 233 235 236 235 233 231 230
170 179 183 190 209 193 191 217 263 292 275 264 277 296 294 289 280 277 303 303 301 289 275 286 294 292 291 284 266 259 273 277 272 258 236 229 228 231 232 232 233 233 232
184 188 190 205 225 219 205 219 246 277 285 282 280 279 279 284 282 284 291 292 300 303 299 289 289 284 278 279 276 273 274 275 279 278 244 230 229 231 232 232 233 233 233
191 197 199 209 223 232 226 220 224 242 264 275 274 270 270 269 269 273 276 273 281 292 288 281 276 278 274 283 288 284 289 286 289 293 284 253 235 230 232 232 233 233 233
203 195 202 211 222 231 228 219 227 240 245 259 263 261 260 253 243 246 267 288 300 296 298 296 295 298 297 316 311 308 303 300 288 286 292 287 266 240 233 235 236 236 233
211 205 208 219 229 234 166 162 205 289 295 281 275 270 272 246 231 231 238 244 246 257 270 279 286 288 295 302 308 305 303 304 299 305 318 303 298 284 259 238 232 230 231
204 215 218 226 235 208 181 188 205 241 271 278 281 277 279 282 265 231 230 236 243 246 241 246 262 267 275 281 289 296 292 290 284 287 292 284 278 276 271 272 254 235 228
202 211 220 228 235 226 205 210 212 229 254 261 264 263 260 263 265 259 262 254 243 245 240 234 239 248 254 256 257 264 270 276 271 265 254 266 269 265 268 266 268 252 235
206 214 221 226 233 234 214 215 208 232 248 253 254 255 250 248 240 237 242 254 262 265 266 257 237 240 247 254 253 263 265 269 274 272 255 256 266 271 272 270 265 258 243
211 222 227 224 231 235 219 214 207 233 253 260 260 255 248 245 241 234 234 245 255 260 268 281 271 257 251 250 243 233 241 253 264 270 259 256 267 277 282 266 266 267 252